Погода в Сосновке

Россия / Тюменская область     56°32′27″N   66°55′17″E
темп.,
°C
ветер,
м/с
пор.,
м/с
влажн.,
%
обл.,
%
осадки,
мм/ч
давл.,
гПа
погр.,
м
13 апреля, вт
вт1323:00+5ссз36854 0.0 103791
02:00+3ссз33730 0.0 103822
05:00+2сз22710 0.0 104015
08:00+4зсз34760 0.0 1041154
11:00+8зсз46600 0.0 1041674
14:00+11зсз454757 0.0 10401015
17:00+11з46490 0.0 1038962
20:00+7зюз487364 0.0 1038122
14 апреля, ср
ср1423:00+5зюз4108267 0.0 1037170
02:00+5юз5138599 0.0 1035259
05:00+5юз61484100 0.0 1034307
08:00+6зюз7148273 0.0 1032373
11:00+12зюз7107312 0.0 1031586
14:00+16з796240 0.0 1029962
17:00+17з586469 0.0 10281054
20:00+12зюз498397 0.0 1028148
15 апреля, чт
чт1523:00+10зюз37905 0.0 102799
02:00+9зюз49926 0.0 1026143
05:00+8зюз34947 0.0 102652
08:00+11зюз47855 0.0 1026206
11:00+16з576554 0.0 1024784
14:00+18зюз675435 0.0 10221415
17:00+18зюз68555 0.0 10201446
20:00+13зюз49735 0.0 1019148
16 апреля, пт
пт1623:00+11юз410795 0.0 1018155
02:00+9зюз4108297 0.0 1017170
05:00+8зюз3588100 0.0 101679
08:00+10зсз3576100 0.0 1015165
11:00+14зсз3453100 0.0 1014625
14:00+15с445257 0.0 10131385
17:00+9св777774 0.0 1014618
20:00+5св7892100 0.0 1014615
17 апреля, сб
сб1723:00+3всв71095100 0.3 1012613
02:000св81396100 2.1 1011690
05:00−2св71396100 6.8 1012634
08:00−3св71192100 0.9 1012706
11:00−2св7986100 1.1 1012916
14:00−1св71088100 0.5 10131013
17:00−2св81190100 1.0 10141035
20:00−4ссв81288100 0.3 1015912